Location: Munkebjergskolens Observatorium
(55.3864°N, 10.3987°E)
Time: 23:29:14
(UTC+01:00)

CUTE 1.7 + AOD 2 - Visible Passes

Search period start: 22 March 2023 00:00
Search period end: 01 April 2023 01:00
Orbit: 584 x 603 km, 97.7° (Epoch: 21 March)

Date Brightness Start Highest point End Pass type
(mag) Time Alt. Az. Time Alt. Az. Time Alt. Az.
22 Mar ? 03:17:29 10° NE 03:21:04 27° E 03:23:46 15° SE visible
22 Mar ? 04:52:51 10° N 04:56:51 45° WNW 05:00:24 13° SW visible
23 Mar ? 03:26:25 10° NNE 03:30:12 32° E 03:33:05 15° SSE visible
23 Mar ? 05:01:59 10° N 05:05:53 38° WNW 05:09:43 10° SW visible
24 Mar ? 03:35:22 10° NNE 03:39:18 38° E 03:42:24 15° SSE visible
24 Mar ? 05:11:07 10° N 05:14:52 32° WNW 05:18:37 10° SW visible
25 Mar ? 03:44:20 10° NNE 03:48:23 45° E 03:51:41 15° S visible
25 Mar ? 05:20:15 10° N 05:23:50 28° WNW 05:27:26 10° WSW visible
26 Mar ? 04:53:18 10° NNE 04:57:27 55° E 05:00:58 14° S visible
27 Mar ? 03:29:34 10° ENE 03:30:03 10° E 03:30:33 10° E visible
27 Mar ? 05:02:17 10° NNE 05:06:29 67° ESE 05:10:14 13° S visible
28 Mar ? 03:37:25 10° ENE 03:39:12 12° E 03:40:58 10° ESE visible
28 Mar ? 05:11:17 10° NNE 05:15:31 80° ESE 05:19:29 11° SSW visible
29 Mar ? 03:45:54 10° NE 03:48:18 15° E 03:50:43 10° ESE visible
29 Mar ? 05:20:16 10° NNE 05:24:30 86° WNW 05:28:43 10° SSW visible
30 Mar ? 03:54:32 10° NE 03:57:24 18° E 04:00:16 10° SE visible
30 Mar ? 05:29:16 10° NNE 05:33:29 72° WNW 05:37:41 10° SSW visible
31 Mar ? 04:03:15 10° NE 04:06:28 21° E 04:09:40 10° SE visible
31 Mar ? 05:38:16 10° N 05:42:26 60° WNW 05:46:35 10° SSW visible
